PST,Max TemperatureF,Mean TemperatureF,Min TemperatureF,Max Dew PointF,MeanDew PointF,Min DewpointF,Max Humidity, Mean Humidity, Min Humidity, Max Sea Level PressureIn, Mean Sea Level PressureIn, Min Sea Level PressureIn, Max VisibilityMiles, Mean VisibilityMiles, Min VisibilityMiles, Max Wind SpeedMPH, Mean Wind SpeedMPH, Max Gust SpeedMPH,PrecipitationIn, CloudCover, Events, WindDirDegrees
2014-1-1,30,29,27,28,27,25,92,89,85,30.51,30.44,30.35,10,6,1,7,1,9,0.02,8,Rain,182
2014-1-2,35,32,29,32,29,27,100,91,82,30.38,30.14,29.82,10,6,1,16,8,21,0.01,8,,189
2014-1-3,41,32,22,30,25,16,92,81,69,30.30,30.02,29.77,10,7,3,29,7,39,T,4,,337
2014-1-4,37,24,11,18,14,9,84,64,44,30.51,30.43,30.31,10,10,10,12,3,15,0.00,0,,318
2014-1-5,35,25,15,18,14,11,80,62,44,30.66,30.61,30.53,10,10,10,15,6,18,0.00,0,,344
2014-1-6,27,20,13,17,14,10,88,76,63,30.59,30.44,30.27,10,10,10,8,2,9,0.00,0,,10
2014-1-7,31,24,17,23,20,15,92,78,63,30.26,30.20,30.13,10,9,3,7,0,7,T,6,Snow,337
2014-1-8,29,27,25,27,26,21,92,88,84,30.14,29.92,29.72,10,4,0,8,2,10,0.09,8,Fog-Snow,158
2014-1-9,29,28,26,27,25,23,92,88,84,29.96,29.83,29.68,10,7,1,10,4,14,0.03,8,Snow,178
2014-1-10,42,33,24,31,27,22,92,79,65,29.91,29.83,29.68,10,10,6,17,4,22,0.00,3,,158
2014-1-11,52,45,38,38,31,27,71,55,38,29.61,29.37,29.27,10,10,10,26,16,37,0.01,4,Rain,175
2014-1-12,46,41,35,31,27,20,75,55,34,30.01,29.87,29.52,10,10,10,21,9,25,0.00,1,,181
2014-1-13,61,50,39,31,29,26,82,55,27,30.46,30.19,30.03,10,10,10,17,8,33,0.00,1,,201
2014-1-14,48,39,29,34,30,26,89,75,60,30.62,30.55,30.49,10,10,10,13,5,16,0.00,1,,233
2014-1-15,46,36,25,33,29,23,92,79,65,30.60,30.51,30.39,10,10,9,16,5,19,0.00,0,,313
2014-1-16,30,25,19,28,25,18,100,92,84,30.64,30.57,30.50,10,2,0,7,1,9,0.00,4,Fog,347
2014-1-17,30,29,27,28,25,23,92,88,84,30.51,30.45,30.39,10,4,0,13,6,16,0.00,8,Fog,357
2014-1-18,31,29,27,27,26,25,92,89,85,30.46,30.38,30.26,10,8,2,12,4,13,0.00,8,,169
2014-1-19,36,32,28,27,27,25,92,81,70,30.47,30.29,30.20,10,10,7,17,6,23,0.00,5,,344
2014-1-20,32,29,26,27,25,23,92,85,78,30.61,30.54,30.44,10,10,10,16,4,20,0.00,8,,225
2014-1-21,30,29,27,25,24,23,92,85,78,30.56,30.49,30.37,10,10,10,7,1,9,0.00,8,,304
2014-1-22,35,28,20,25,24,18,100,82,64,30.60,30.46,30.39,10,10,9,8,2,12,0.00,6,,352
2014-1-23,34,25,16,28,23,14,91,83,75,30.69,30.63,30.56,10,10,9,8,3,10,0.00,4,,184
2014-1-24,33,31,29,29,28,26,100,88,75,30.71,30.66,30.58,10,7,2,7,3,9,T,8,Snow,169
2014-1-25,31,30,29,26,25,23,92,82,72,30.62,30.52,30.41,10,10,10,6,2,7,0.00,8,,171
2014-1-26,32,31,29,25,24,23,85,79,72,30.41,30.36,30.33,10,10,10,8,2,12,0.00,8,,340
2014-1-27,39,34,29,28,27,25,85,78,70,30.45,30.41,30.33,10,10,8,8,2,11,0.00,8,,146
2014-1-28,34,32,30,28,27,26,85,80,75,30.42,30.33,30.15,10,10,10,12,6,15,0.00,8,,179
2014-1-29,33,31,28,29,28,26,100,93,85,30.11,29.82,29.70,10,5,1,12,3,14,0.16,8,Snow,20
2014-1-30,37,32,26,29,26,20,92,79,66,29.99,29.85,29.76,10,9,2,15,7,19,T,7,Snow,339
2014-1-31,33,28,22,20,15,11,69,55,41,30.21,30.10,29.99,10,10,10,21,13,26,0.00,3,,338